Location: Kanthamr?ju Kond?ru
(16.3484°N, 80.6017°E)
Time: 15:37:21
(UTC+00:00)

Daily predictions for brighter satellites

Satellite Brightness Start Highest point End
(mag) Time Altitude Azimuth Time Altitude Azimuth Time Altitude Azimuth
STARLINK-1079 3.6 13:07:41 10° NW 13:11:49 88° SW 13:15:57 10° SE
Cosmos 1953 2.5 13:08:25 10° SSE 13:12:14 49° E 13:16:04 10° NNE
Orbus 7S? 3.6 13:13:20 10° N 13:15:36 29° ENE 13:18:48 10° SE
STARLINK-1116 3.8 13:12:40 10° NW 13:16:48 77° SW 13:20:55 10° SSE
YAOGAN 1 2.7 13:17:44 10° SSE 13:21:57 55° ENE 13:26:10 10° N
Cosmos 1302 Rocket 4.0 13:18:02 10° N 13:23:18 71° ENE 13:28:33 10° SSE
STARLINK-1094 4.3 13:22:39 10° NW 13:26:42 56° SW 13:30:44 10° SSE
ATLAS 3B CENTAUR R/B 3.6 13:16:10 10° WNW 13:26:45 47° SW 13:31:28 10° SE
ATLAS 5 CENTAUR R/B 1.8 13:23:41 10° SSW 13:27:38 64° WNW 13:31:40 10° NNE
GOES 2 Rocket 3.0 13:27:05 10° WNW 13:31:21 74° SSW 13:34:58 14° ESE
CZ-2D R/B 3.1 13:30:31 10° SSE 13:34:19 80° ENE 13:38:06 10° N
ASTRO E2 4.0 13:32:09 10° SSW 13:35:23 23° SSE 13:37:13 17° ESE
Meteor 1-16 Rocket 4.1 13:30:59 10° S 13:36:13 64° E 13:41:34 10° NNE
Cosmos 2058 Rocket 4.3 13:36:45 10° SE 13:40:08 21° E 13:43:30 10° NE
Cosmos 1626 Rocket 3.4 13:37:13 10° N 13:41:33 84° E 13:45:50 10° S
H-2A R/B 3.1 13:42:41 17° ESE 13:45:12 24° ENE 13:49:19 10° NNE
USA 234 3.3 13:39:18 10° NE 13:45:41 55° SE 13:52:03 10° SSW
Cosmos 1726 Rocket 3.8 13:41:52 10° SSE 13:46:00 43° E 13:50:11 10° NNE
GPS 2-15 Rocket1 3.3 13:41:24 10° W 13:46:20 73° SSW 13:49:27 22° ESE
CSL-04 Debris 4.2 13:43:54 10° SSE 13:49:24 86° WSW 13:54:52 10° NNW
ISS -1.7 13:47:50 10° N 13:49:49 15° NE 13:49:49 15° NE
Cosmos 1626 4.1 13:48:05 10° NNW 13:51:23 31° W 13:54:41 10° SSW
CZ-2C R/B 4.0 13:51:43 23° E 13:52:49 25° ENE 13:56:45 10° NNE
Cosmos 1602 Rocket 3.5 13:49:05 10° N 13:53:27 88° ENE 13:57:47 10° S
STARLINK-1112 4.5 13:50:14 10° NNW 13:53:58 32° NE 13:55:01 28° E
Cosmos 2084 Rocket 3.5 13:51:08 10° NNW 13:55:34 66° ENE 13:58:14 23° SE
Cosmos 1943 Rocket 2.1 13:50:34 10° N 13:56:06 64° ENE 14:01:04 13° SSE
STARLINK-1128 4.3 13:55:07 10° NNW 13:58:57 36° NE 13:59:49 32° E
Ariane Rocket 3.3 13:58:54 24° SE 14:01:32 42° ENE 14:06:16 10° N
Cosmos 2228 2.9 13:57:21 10° S 14:01:36 87° W 14:05:54 10° N
Cosmos 1140 Rocket 3.4 13:57:31 10° S 14:02:44 85° ESE 14:07:55 10° NNE
STARLINK-1113 4.1 14:00:03 10° NNW 14:03:58 42° NE 14:04:39 38° E
SJ-11-01 4.2 14:04:49 19° SSE 14:08:09 65° ENE 14:12:49 10° N
Meteor 1-21 Rocket 4.1 14:02:39 10° N 14:08:11 78° E 14:13:46 10° S
Cosmos 2369 Rocket 2.2 14:03:12 10° N 14:08:45 60° ENE 14:11:35 28° SE
STARLINK-1119 3.8 14:04:54 10° NNW 14:08:53 48° NE 14:09:22 45° ENE
Cosmos 1825 Rocket 3.9 14:05:32 10° NNE 14:09:25 40° ENE 14:09:25 40° ENE
STARLINK-1114 3.6 14:09:50 10° NNW 14:13:53 56° NE 14:14:10 54° ENE
MINOTAUR IV R/B 4.5 14:10:27 10° SSW 14:14:55 89° W 14:19:24 10° NNE
Cosmos 1606 Rocket 4.5 14:11:48 10° SSW 14:16:03 49° W 14:20:20 10° N
GPS 2-18 Rocket1 2.8 14:12:33 10° WSW 14:16:16 89° NNW 14:16:29 79° ENE
HJ-1C 4.1 14:14:33 20° S 14:16:35 51° W 14:19:51 10° NNW
STARLINK-1130 (DARKSAT) 3.5 14:14:44 10° NNW 14:18:50 65° NE 14:18:56 65° ENE
Cosmos 2074 Rocket 3.9 14:13:20 10° N 14:19:36 69° E 14:24:35 17° SSE
Aureole 2 Rocket 3.5 14:17:28 10° NNW 14:20:34 40° WSW 14:21:27 31° SW
Cosmos 1340 Rocket 2.8 14:18:04 10° S 14:22:08 83° W 14:26:11 10° N
Hubble Space Telescope 3.0 14:20:10 10° NW 14:22:58 17° N 14:24:31 15° NNE
Cosmos 1758 Rocket 3.3 14:19:27 10° N 14:23:45 85° E 14:24:30 60° SSE
STARLINK-1084 3.5 14:19:41 10° NNW 14:23:44 75° NE 14:23:44 75° NE
USA 186 3.9 14:26:05 20° N 14:26:05 20° N 14:27:11 10° N
STARLINK-1098 3.6 14:24:39 10° NW 14:28:31 78° NNW 14:28:31 78° NNW
Ariane H10-3 3.7 14:26:59 10° WSW 14:31:02 35° S 14:31:36 34° SSE
STARLINK-1123 3.8 14:29:38 10° NW 14:33:18 68° WNW 14:33:18 68° WNW
Cosmos 2263 4.0 14:29:45 10° NNW 14:35:20 75° ENE 14:35:55 68° ESE
ATLAS 5 CENTAUR R/B 2.6 14:30:58 10° W 14:35:23 69° N 14:41:16 32° ENE
ARGOS 3.0 14:35:27 68° ESE 14:35:57 73° ENE 14:41:19 10° N
IRS-1A Rocket 4.2 14:33:44 34° S 14:36:18 85° WSW 14:42:02 10° NNW
Cosmos 1610 Rocket 4.4 14:30:23 10° N 14:36:16 57° E 14:36:16 57° E
Cosmos 1656 Rocket 4.3 14:32:26 10° N 14:36:29 39° NE 14:36:29 39° NE
STARLINK-1097 4.1 14:34:36 10° NW 14:38:05 58° WNW 14:38:05 58° WNW
DMSP B5D2-2 4.0 14:34:02 10° NNE 14:39:16 89° W 14:44:31 10° SSW
H-2A R/B 2.5 14:34:34 10° WNW 14:39:55 35° NNW 14:39:55 35° NNW
STARLINK-1099 4.5 14:39:37 10° NW 14:42:53 48° WNW 14:42:53 48° WNW
CZ-2C R/B 2.6 14:41:28 10° NNE 14:46:00 69° NNE 14:46:00 69° NNE
GEOS 3 Rocket 4.3 14:48:17 41° NNE 14:48:17 41° NNE 14:51:56 10° NNW
Cosmos 2327 Rocket 4.5 14:49:54 10° N 14:56:18 82° W 14:57:13 67° SSW
Centaur AC-119 4.3 15:10:06 10° W 15:17:32 37° WNW 15:17:32 37° WNW
H-2A R/B 4.0 15:23:17 22° WSW 15:24:23 24° W 15:28:30 10° NW
ATLAS 2AS CENTAUR R/B 3.9 15:29:48 10° NNW 15:33:29 33° NNW 15:33:29 33° NNW
CZ-3A R/B 3.8 15:29:47 10° WNW 15:42:27 45° WSW 15:42:27 45° WSW
ATLAS 3B R/B 4.4 21:33:20 23° NNE 21:33:20 23° NNE 21:35:37 10° NNE
SL-16 R/B 3.5 22:02:41 10° N 22:07:52 37° ENE 22:13:02 10° SE
Cosmos 2263 Rocket 2.7 22:26:00 48° N 22:26:00 48° N 22:30:09 10° N
FUSE 3.8 22:35:58 86° ENE 22:35:58 86° ENE 22:41:10 10° ENE
ATLAS 5 CENTAUR R/B 3.9 22:37:35 32° NW 22:37:35 32° NW 22:40:07 10° N
Cosmos 2195 Rocket 4.3 22:35:10 38° S 22:37:42 89° E 22:43:53 10° N
Meteor 1-12 Rocket 4.3 22:31:53 10° N 22:37:44 80° E 22:43:28 10° S
Cosmos 1627 Rocket 4.4 22:38:29 25° S 22:42:16 87° E 22:48:23 10° N
STARLINK-1150 4.1 22:47:35 48° NE 22:47:35 48° NE 22:50:18 10° NE
Ariane H10+ 4.4 22:41:52 28° SSW 22:47:08 43° SSE 23:15:08 10° E
CCE 1 Rocket 4.0 22:51:13 52° NW 22:52:24 82° NNE 22:59:25 10° ESE
Lacrosse 5 2.3 22:51:08 31° S 22:53:20 57° ESE 22:58:17 10° NE
PSLV R/B 3.7 22:54:09 57° SW 22:54:27 59° SSW 22:57:11 10° ESE
TRAILBLAZER 4.4 22:53:32 28° NNW 22:55:51 81° WSW 23:00:20 10° SSE
Cosmos 1437 Rocket 2.7 22:55:17 64° S 22:55:53 89° W 22:59:59 10° N
CZ-4B R/B 4.2 22:52:40 10° NNE 22:56:57 45° E 23:01:15 10° S
Meteor 2-13 Rocket 4.5 22:51:54 10° S 22:57:55 79° E 23:03:57 10° N
STARLINK-1170 3.5 22:58:45 58° NNW 22:58:45 58° NNW 23:02:06 10° NNE
STARLINK-1151 3.4 23:00:40 58° N 23:00:40 58° N 23:03:43 10° NNE
STARLINK-1133 3.4 23:02:15 57° NNW 23:02:15 57° NNW 23:05:21 10° NNE
STARLINK-1139 3.4 23:03:52 56° NNW 23:03:52 56° NNW 23:07:00 10° NNE
STARLINK-1174 3.4 23:05:28 54° NNW 23:05:28 54° NNW 23:08:41 10° NNE
STARLINK-1132 3.6 23:07:16 48° NW 23:07:16 48° NW 23:10:41 10° NNE
STARLINK-1180 3.5 23:08:46 49° NW 23:08:46 49° NW 23:12:05 10° NNE
Spot 2 4.3 23:05:10 10° N 23:10:15 71° WNW 23:14:27 14° SSW
STARLINK-1153 3.5 23:10:26 46° NW 23:10:26 46° NW 23:13:49 10° NNE
STARLINK-1177 3.7 23:10:26 43° NW 23:10:27 43° NW 23:13:56 10° NNE
CZ-2C R/B 2.8 23:06:54 10° N 23:11:02 34° WNW 23:11:11 34° W
STARLINK-1167 3.8 23:13:12 39° WNW 23:13:19 39° NW 23:16:47 10° NNE
STARLINK-1149 4.1 23:18:53 32° WNW 23:19:20 33° NW 23:22:46 10° NNE
Cosmos 2026 Rocket 4.3 23:15:18 15° SSW 23:20:01 41° W 23:25:43 10° NNW
SWIFT 2.6 23:18:50 27° WNW 23:21:03 65° N 23:25:16 10° E
GPS 2-12 Rocket1 4.0 23:20:16 26° SW 23:21:12 28° SSW 23:25:01 10° SE
STARLINK-1168 4.0 23:21:38 31° WNW 23:22:02 32° NW 23:25:14 10° NNE
Skynet4D Del rocket 4.2 23:17:39 20° WNW 23:22:36 76° SSW 23:30:23 10° ESE
STARLINK-1163 4.3 23:23:15 27° WNW 23:23:47 29° NW 23:27:00 10° N
STARLINK-1164 4.1 23:23:22 29° WNW 23:23:51 30° NW 23:27:00 10° NNE
Palapa B4 Rocket 4.0 23:19:45 23° WSW 23:24:59 75° SSE 23:30:09 10° E
Meteor 1-31 Rocket 3.0 23:21:20 10° N 23:25:04 46° WNW 23:27:47 17° SW
Meteor PRIRODA 3.7 23:21:57 10° NNE 23:25:38 79° ESE 23:29:20 10° S
STARLINK-1182 4.2 23:25:07 27° WNW 23:25:41 28° NW 23:28:47 10° N
Chunghua 1 4.4 23:25:51 26° WNW 23:27:41 63° SW 23:31:19 10° SE
STARLINK-1172 4.4 23:28:54 24° WNW 23:29:39 26° NW 23:32:39 10° N
SeaSat 1 4.3 23:27:02 10° SE 23:31:25 33° ENE 23:35:48 10° N
STARLINK-1145 4.5 23:30:44 22° WNW 23:31:32 24° NW 23:34:29 10° N
FENGYUN 3A 3.6 23:28:54 10° NNE 23:34:17 90° W 23:39:39 10° SSW
BREEZE-M DEB (TANK) 3.2 23:36:37 18° WNW 23:37:19 19° WNW 23:39:15 10° N
Intelsat 5-3 Rocket 1.9 23:38:06 23° WNW 23:39:10 41° NNW 23:41:57 10° ENE
PSLV R/B 4.0 23:35:20 10° NNE 23:39:21 76° E 23:43:16 10° S
Okean O Rocket 4.0 23:36:50 10° NE 23:40:31 26° E 23:44:13 10° SSE
ASTRO E2 3.5 23:38:37 19° W 23:40:47 31° SSW 23:44:20 10° SSE
Lacrosse 4 Rocket 1.4 23:37:07 10° SSW 23:41:21 90° ESE 23:45:43 10° NNE
Cosmos 1689 Rocket 3.4 23:43:21 10° SSW 23:45:38 20° W 23:47:56 10° NW
Cosmos 1844 Rocket 2.6 23:40:37 10° SSW 23:46:11 70° WNW 23:51:49 10° N
GPS 2-14 Rocket1 3.5 23:43:22 13° WNW 23:46:51 44° N 23:50:43 10° ENE
STARLINK-1129 4.3 23:43:05 10° SSW 23:47:07 56° SE 23:51:09 10° NE
SL-16 R/B 3.5 23:48:06 10° WNW 23:51:35 17° WSW 23:55:04 10° SW
Aureole 3 Rocket 2.2 23:48:26 10° N 23:51:40 89° NE 23:54:41 10° S
Okean 2 4.4 23:48:39 10° SW 23:52:05 25° W 23:55:30 10° NNW
STARLINK-1134 4.0 23:48:02 10° SSW 23:52:07 66° SE 23:56:13 10° NE
Cosmos 1766 3.1 23:50:55 10° N 23:54:46 81° W 23:58:37 10° S
